DL1GFM-6 Weather Reports


time (UTC)temp
F
wind
direction
speed
knots
gust
knots
rain 1hr
in
rain 24hr
in
rain mn
in
humidity
%
barometer
mb
20191016170017 53 280 0.0 0.0 0.00 0.00 0.00 70 1010.3
20191016165015 54 180 0.0 2.6 0.00 0.00 0.00 69 1010.3
20191016164024 54 230 0.0 1.7 0.00 0.00 0.00 69 1010.2
20191016163022 54 225 0.0 0.0 0.00 0.00 0.00 68 1010.3
20191016153018 57 228 0.9 1.7 0.00 0.00 0.00 65
20191016152024 58 156 0.0 1.7 0.00 0.00 0.00 64
20191016151020 58 183 0.9 1.7 0.00 0.00 0.00 64
20191016150016 59 119 1.7 2.6 0.00 0.00 0.00 63
20191016145023 59 127 1.7 2.6 0.00 0.00 0.00 63
20191016144018 59 191 1.7 3.5 0.00 0.00 0.00 62
20191016143026 60 152 1.7 4.3 0.00 0.00 0.00 61
20191016142022 60 194 1.7 2.6 0.00 0.00 0.00 61
20191016141018 61 315 0.9 3.5 0.00 0.00 0.00 61
20191016140025 61 179 0.9 2.6 0.00 0.00 0.00 59
20191016135020 61 123 0.9 1.7 0.00 0.00 0.00 61
20191016134016 61 137 0.9 3.5 0.00 0.00 0.00 62
20191016133023 61 142 0.9 3.5 0.00 0.00 0.00 61
20191016132018 61 113 2.6 4.3 0.00 0.00 0.00 61
20191016131015 61 105 2.6 4.3 0.00 0.00 0.00 60
20191016130023 62 41 1.7 5.2 0.00 0.00 0.00 60
20191016125017 62 41 1.7 3.5 0.00 0.00 0.00 60
20191016124024 61 84 1.7 2.6 0.00 0.00 0.00 61
20191016123021 62 157 1.7 4.3 0.00 0.00 0.00 60
20191016122018 62 20 1.7 6.1 0.00 0.00 0.00 60
20191016121024 62 128 1.7 2.6 0.00 0.00 0.00 59
20191016120022 62 81 2.6 4.3 0.00 0.00 0.00 60
20191016115019 62 92 1.7 4.3 0.00 0.00 0.00 59
20191016114026 62 356 1.7 5.2 0.00 0.00 0.00 60
20191016113020 62 115 0.9 2.6 0.00 0.00 0.00 61
20191016112016 61 22 1.7 4.3 0.00 0.00 0.00 62